GW2728 Weather Reports


time (UTC)temp
C
wind
direction
speed
KPH
gust
KPH
rain 1hr
cm
rain 24hr
cm
rain mn
cm
humidity
%
barometer
mb
20260503224535 14 204 6.4 19.3 0.00 0.00 0.00 39 1012.2
20260503223035 15 210 6.4 24.1 0.00 0.00 0.00 40 1012.5
20260503221538 15 262 8.0 33.8 0.00 0.00 0.00 39 1012.5
20260503220040 15 239 9.7 24.1 0.00 0.00 0.00 37 1012.6
20260503214536 16 152 8.0 17.7 0.00 0.00 0.00 37 1012.2
20260503213037 15 253 6.4 16.1 0.00 0.00 0.00 40 1012.6
20260503211540 15 186 11.3 24.1 0.00 0.00 0.00 38 1012.7
20260503210035 15 259 8.0 22.5 0.00 0.00 0.00 37 1012.6
20260503204534 16 194 6.4 20.9 0.00 0.00 0.00 36 1012.5
20260503203040 16 245 9.7 24.1 0.00 0.00 0.00 37 1012.7
20260503201538 16 266 8.0 24.1 0.00 0.00 0.00 35 1012.7
20260503200037 15 151 6.4 22.5 0.00 0.00 0.00 37 1013.0
20260503194542 15 233 9.7 24.1 0.00 0.00 0.00 38 1013.3
20260503193041 15 234 16.1 27.4 0.00 0.00 0.00 37 1013.5
20260503191536 15 207 9.7 24.1 0.00 0.00 0.00 39 1013.9
20260503190042 15 246 11.3 24.1 0.00 0.00 0.00 39 1014.0
20260503184537 15 235 4.8 16.1 0.00 0.00 0.00 40 1014.1
20260503183037 15 272 6.4 19.3 0.00 0.00 0.00 40 1014.3
20260503181538 15 256 6.4 20.9 0.00 0.00 0.00 40 1014.4
20260503180036 15 233 9.7 27.4 0.00 0.00 0.00 40 1014.5
20260503174549 15 217 8.0 20.9 0.00 0.00 0.00 42 1014.7
20260503173040 15 210 8.0 20.9 0.00 0.00 0.00 43 1014.9
20260503171537 13 179 9.7 24.1 0.00 0.00 0.00 43 1015.1
20260503081545 1 153 0.0 0.0 0.00 0.41 0.00 85 1016.2
20260503071542 1 0 0.0 1.6 0.00 0.41 0.00 86 1016.2
20260503054537 1 0 0.0 0.0 0.00 0.41 0.00 84 1016.5
20260503053037 2 0 0.0 0.0 0.00 0.41 0.00 84 1016.5
20260503051535 2 0 0.0 0.0 0.00 0.41 0.00 83 1016.5
20260503050040 2 0 0.0 0.0 0.00 0.41 0.00 81 1016.6
20260503044545 2 0 0.0 0.0 0.00 0.58 0.00 80 1016.7
20260503043037 3 0 0.0 1.6 0.00 0.58 0.00 78 1016.6
20260503041537 3 0 0.0 1.6 0.00 0.58 0.00 76 1016.7
20260503040036 4 265 0.0 0.0 0.00 0.58 0.00 75 1016.8
20260503034557 4 0 0.0 3.2 0.00 0.74 0.58 74 1017.0
20260503033042 4 0 0.0 0.0 0.00 0.74 0.58 75 1016.9
20260503031535 4 0 0.0 0.0 0.00 0.74 0.58 75 1017.0
20260503030042 4 0 0.0 0.0 0.00 0.74 0.58 74 1017.0
20260503024537 4 0 0.0 0.0 0.00 0.74 0.58 73 1017.1
20260503023037 4 0 0.0 0.0 0.00 0.74 0.58 72 1017.3
20260503021539 4 0 0.0 0.0 0.00 0.74 0.58 72 1017.3
20260503020038 4 0 0.0 0.0 0.00 0.74 0.58 70 1017.3
20260503014541 4 0 0.0 0.0 0.00 0.74 0.58 70 1017.2
20260503013037 5 0 0.0 0.0 0.00 0.74 0.58 69 1017.2
20260503011537 5 0 0.0 0.0 0.00 0.74 0.58 68 1017.2
20260503010037 5 0 0.0 0.0 0.00 0.74 0.58 66 1017.2
20260503004604 5 0 0.0 0.0 0.00 0.74 0.58 64 1017.2
20260503003049 5 0 0.0 0.0 0.00 0.74 0.58 62 1017.1
20260503001556 5 0 0.0 0.0 0.00 0.74 0.58 60 1017.1
20260503000046 5 0 0.0 3.2 0.00 0.74 0.58 57 1016.9
20260502234543 5 347 1.6 6.4 0.00 0.74 0.58 56 1016.8
20260502233037 6 0 0.0 3.2 0.00 0.74 0.58 57 1016.8
20260502231535 6 310 0.0 8.0 0.00 0.74 0.58 55 1016.8
20260502230039 6 229 1.6 9.7 0.00 0.74 0.58 57 1017.1